[[{"header":{"parameterUnit":"m.s-1","parameterCategory":2,"la1":30.2991,"la2":30.254,"lo1":-89.0895,"lo2":-89.0444,"dy":0.0017,"dx":0.0017,"nx":28,"ny":28,"refTime":"2025-02-05T09:00:00:Z","depth":"0","parameterNumber":2,"parameterNumberName":"U-component_of_CURRENTS"},"data":[0,0,0,0,0,0,0,0,0,0,0,0,0,0,0,0,0,0,0,0,0,0,0,0,0,0,0,0,0,0,0,0,0,0,0,0,0,0,0,0,0,0,0,0,0,0,0,0,0,0,0,0,0,0,0,0,0,0,0.329,0.329,0,0.3287,0.3287,0.3287,0.3259,0.3258,0.3258,0.3257,0.3246,0.3246,0.3247,0,0,0,0,0,0,0,0,0,0,0,0,0,0.3319,0.3318,0.329,0.329,0.329,0.3287,0.3287,0.3287,0.3259,0.3258,0.3258,0.3257,0.3246,0.3246,0.3247,0,0,0,0,0,0,0,0,0,0,0,0,0,0.3309,0.3318,0.329,0.3277,0.3276,0.3287,0.3287,0.3287,0.3259,0.3258,0.3257,0.3257,0.3246,0.3246,0.3247,0.3266,0,0,0.3248,0.3248,0,0,0,0,0,0,0,0,0.3309,0.3307,0.3279,0.3278,0.3277,0.3274,0.3293,0.328,0.3259,0.3264,0.3257,0.3256,0.3256,0.3256,0.3255,0.3265,0.3265,0.3248,0.3248,0.3248,0.3248,0,0,0,0,0,0,0,0.331,0.3308,0.3288,0.3279,0.3278,0.3288,0.3285,0.329,0.3264,0.3264,0.3262,0.3264,0.3255,0.3255,0.3255,0.3264,0.3248,0.3248,0.3248,0.3248,0.3335,0.3337,0,0,0,0,0,0,0.3311,0.3308,0.3288,0.3288,0.3293,0.3288,0.3284,0.3275,0.3264,0.3262,0.3265,0.3263,0.3255,0.3254,0.3254,0.3325,0.3248,0.3248,0.3249,0.3333,0.3336,0.3338,0,0,0,0,0,0,0.3312,0.3309,0.3288,0.33,0.3298,0.3288,0.3277,0.3275,0.328,0.3265,0.3262,0.3273,0.3254,0.3254,0.3276,0.3323,0.3249,0.3249,0.3331,0.3334,0.3337,0.3437,0,0,0,0,0,0,0.3313,0.3309,0.3311,0.3299,0.3297,0.3309,0.3278,0.3276,0.3283,0.328,0.3271,0.3269,0.3253,0.3275,0.3276,0.3322,0.3249,0.3328,0.3332,0.3336,0.3431,0.3443,0.3453,0,0,0,0,0,0.3313,0.3329,0.3311,0.3309,0.3297,0.3311,0.3311,0.33,0.3284,0.3299,0.3293,0.3269,0.3301,0.3277,0.3277,0.3325,0.3326,0.3331,0.3336,0.3426,0.344,0.3453,0,0,0,0,0,0,0.3355,0.3327,0.3307,0.3315,0.3316,0.3307,0.3326,0.331,0.3316,0.3317,0.3292,0.329,0.3331,0.3313,0.3288,0.3362,0.3312,0.3317,0.338,0.3394,0.3405,0.3438,0.3249,0,0,0,0,0,0.3361,0.3358,0.3339,0.335,0.3352,0.3337,0.3343,0.3335,0.3335,0.3336,0.3325,0.3328,0.3352,0.3359,0.3369,0.3405,0.3434,0.3437,0.3449,0.3458,0.3486,0.3584,0.3607,0.3353,0.3353,0.3353,0,0,0.3379,0.3368,0.3365,0.3358,0.3358,0.3379,0.3339,0.3359,0.3388,0.3337,0.3372,0.3367,0.337,0.3416,0.3433,0.3406,0.3544,0.3464,0.3472,0.3496,0.3592,0.3617,0.3639,0.3357,0.3356,0.3356,0,0,0.3424,0.3406,0.3418,0.3425,0.3429,0.3424,0.3432,0.3424,0.3433,0.3457,0.3444,0.3475,0.3476,0.3509,0.3523,0.3605,0.3602,0.3594,0.3678,0.3773,0.3795,0.3815,0.388,0.3905,0.3598,0.3599,0.3599,0,0.3445,0.3452,0.3431,0.3456,0.3469,0.3448,0.3477,0.3496,0.3498,0.352,0.3482,0.3539,0.3535,0.3628,0.3653,0.3636,0.3672,0.3624,0.379,0.381,0.3829,0.3891,0.3917,0.3604,0.3603,0.3603,0.3602,0,0.3495,0.3508,0.3528,0.3539,0.3558,0.3584,0.3597,0.3623,0.3616,0.3625,0.3694,0.3696,0.3733,0.3737,0.3717,0.385,0.3827,0.3795,0.3759,0.3862,0.3919,0.3945,0.3612,0.361,0.3608,0.3607,0,0,0.35,0.3547,0.355,0.3568,0.3599,0.3615,0.3686,0.3732,0.3783,0.3795,0.3872,0.3913,0.3908,0.3926,0.3917,0.399,0.4143,0.395,0.3952,0.402,0.4342,0.4229,0.4246,0.414,0.4145,0.4149,0.4327,0,0.3535,0.3587,0.3608,0.3667,0.3687,0.3714,0.3777,0.3827,0.3862,0.3936,0.3978,0.4042,0.3985,0.4012,0.4084,0.4132,0.4217,0.4097,0.4228,0.4232,0.4125,0.4274,0.4032,0.4163,0.4352,0.4357,0.436,0,0.3549,0.3586,0.3639,0.3709,0.3723,0.3763,0.385,0.3911,0.4026,0.4058,0.4142,0.4173,0.43,0.4227,0.4394,0.4317,0.4351,0.4377,0.4383,0.4266,0.4168,0.4092,0.4202,0.4086,0.4399,0.4396,0.4393,0,0.3515,0.3597,0.3635,0.3658,0.3743,0.3783,0.3835,0.3936,0.4011,0.4154,0.4228,0.4351,0.4424,0.4512,0.4552,0.4497,0.4721,0.465,0.4588,0.4579,0.4394,0.436,0.4413,0.4798,0.4797,0.4797,0.4796,0,0.3511,0.3542,0.3621,0.3639,0.3707,0.3769,0.3866,0.3936,0.4076,0.4182,0.429,0.4399,0.4501,0.4621,0.4644,0.4701,0.4805,0.4652,0.4641,0.4417,0.4384,0.4287,0.4233,0.4803,0.4802,0.4801,0.48,0,0.3455,0.3504,0.3555,0.365,0.3683,0.3729,0.3872,0.3953,0.4084,0.424,0.4303,0.4481,0.4622,0.4711,0.4854,0.4806,0.4736,0.4867,0.458,0.4531,0.4313,0.4271,0.421,0.4093,0.4841,0.4839,0.4838,0,0.3431,0.3447,0.3543,0.3585,0.3628,0.3718,0.3788,0.3929,0.402,0.4275,0.4346,0.4548,0.4645,0.4813,0.4774,0.4824,0.4703,0.4626,0.4476,0.4315,0.4264,0.4118,0.4014,0.4276,0.4271,0.4266,0.4262,0,0.34,0.3426,0.3476,0.3554,0.3622,0.3711,0.3817,0.3882,0.4063,0.4198,0.4362,0.4474,0.4603,0.4528,0.458,0.4571,0.4373,0.453,0.4456,0.3922,0.3678,0.3552,0.4136,0.4221,0.4225,0.4228,0.423,0.4232,0.338,0.3402,0.3467,0.3524,0.3606,0.3671,0.369,0.3816,0.3933,0.405,0.4232,0.4275,0.43,0.4314,0.4294,0.4063,0.4094,0.3905,0.3903,0.3798,0.3571,0.4054,0.4058,0.4061,0.4064,0.4066,0.4068,0,0.3361,0.3384,0.3441,0.3496,0.3523,0.3596,0.3683,0.3665,0.3718,0.3842,0.3922,0.3873,0.3805,0.3795,0.3618,0.3456,0.3309,0.3365,0.3113,0.3069,0.3585,0.3442,0.3197,0.3197,0.3197,0.3198,0.3198,0.3198,0.3361,0.3378,0.3384,0.3387,0.3414,0.3394,0.3398,0.3388,0.3424,0.3359,0.3278,0.3299,0.337,0.3323,0.3118,0.3035,0.2825,0.2657,0.2736,0.3094,0.3143,0.319,0.3046,0.2722,0.2721,0.2044,0.2039,0.2035]},{"header":{"parameterUnit":"m.s-1","parameterCategory":2,"la1":30.2991,"la2":30.254,"lo1":-89.0895,"lo2":-89.0444,"dy":0.0017,"dx":0.0017,"nx":28,"ny":28,"refTime":"2025-02-05T09:00:00:Z","depth":"0","parameterNumber":3,"parameterNumberName":"V-component_of_CURRENTS"},"data":[0,0,0,0,0,0,0,0,0,0,0,0,0,0,0,0,0,0,0,0,0,0,0,0,0,0,0,0,0,0,0,0,0,0,0,0,0,0,0,0,0,0,0,0,0,0,0,0,0,0,0,0,0,0,0,0,0,0,0.0251,0.0251,0,0.0203,0.0202,0.0202,0.0161,0.0161,0.016,0.016,0.0104,0.0103,0.0102,0,0,0,0,0,0,0,0,0,0,0,0,0,0.0262,0.0263,0.0251,0.0251,0.025,0.0203,0.0202,0.0201,0.0161,0.0161,0.016,0.016,0.0105,0.0103,0.0102,0,0,0,0,0,0,0,0,0,0,0,0,0,0.0239,0.0263,0.0251,0.0226,0.0223,0.0203,0.0202,0.0201,0.0161,0.0161,0.016,0.016,0.0105,0.0103,0.0101,0.0098,0,0,0.0096,0.0095,0,0,0,0,0,0,0,0,0.024,0.0238,0.023,0.0227,0.0224,0.0189,0.0186,0.0167,0.0161,0.0183,0.016,0.016,0.0133,0.0129,0.0119,0.0096,0.0093,0.0096,0.0095,0.0094,0.0093,0,0,0,0,0,0,0,0.0242,0.024,0.023,0.0229,0.0226,0.0201,0.0198,0.0182,0.0159,0.0181,0.0178,0.0176,0.0132,0.012,0.0117,0.0093,0.0096,0.0094,0.0093,0.0092,0.0073,0.0074,0,0,0,0,0,0,0.0254,0.0242,0.0232,0.0229,0.0233,0.0202,0.0198,0.0199,0.016,0.0154,0.0176,0.0174,0.0124,0.0119,0.0115,0.0137,0.0094,0.0092,0.0091,0.0073,0.0074,0.0074,0,0,0,0,0,0,0.0255,0.0254,0.0234,0.0235,0.0231,0.0203,0.0204,0.0199,0.0191,0.0157,0.015,0.0176,0.0123,0.0117,0.0107,0.0134,0.0091,0.009,0.0072,0.0073,0.0074,0.0164,0,0,0,0,0,0,0.0256,0.0255,0.0258,0.0236,0.0232,0.0234,0.0205,0.0198,0.0191,0.0188,0.0154,0.0148,0.0123,0.011,0.0105,0.013,0.0088,0.0071,0.0073,0.0074,0.016,0.0168,0.0174,0,0,0,0,0,0.0256,0.027,0.0258,0.0257,0.0238,0.0235,0.0231,0.0207,0.0192,0.0197,0.017,0.0149,0.0114,0.0109,0.0103,0.0129,0.0071,0.0072,0.0074,0.0157,0.0166,0.0174,0,0,0,0,0,0,0.0277,0.0267,0.0253,0.0263,0.0254,0.0229,0.023,0.0214,0.0196,0.0191,0.0156,0.0148,0.015,0.0123,0.0119,0.0124,0.0089,0.009,0.0155,0.0163,0.017,0.0197,0.0087,0,0,0,0,0,0.0284,0.0291,0.0275,0.0283,0.028,0.0255,0.0249,0.0236,0.0218,0.0209,0.0186,0.0162,0.015,0.0144,0.0125,0.0129,0.0118,0.014,0.0147,0.0154,0.017,0.0181,0.0191,0.0079,0.0079,0.0079,0,0,0.0293,0.0289,0.0292,0.0288,0.0275,0.0292,0.0251,0.025,0.0266,0.0207,0.0216,0.0185,0.0155,0.016,0.0159,0.0143,0.0177,0.0155,0.0161,0.0175,0.0183,0.0195,0.0205,0.008,0.0079,0.0079,0,0,0.0329,0.0313,0.0336,0.0335,0.0327,0.0316,0.0321,0.0302,0.0294,0.0294,0.026,0.025,0.0222,0.0216,0.0207,0.0242,0.0213,0.0228,0.029,0.0301,0.0311,0.0319,0.0314,0.0322,0.0234,0.0234,0.0234,0,0.0341,0.0369,0.0342,0.0367,0.0378,0.0335,0.037,0.0358,0.0339,0.0347,0.0309,0.0291,0.0256,0.0286,0.0286,0.0262,0.0253,0.0264,0.0313,0.0321,0.0328,0.0321,0.0328,0.0239,0.0238,0.0238,0.0237,0,0.0399,0.042,0.0434,0.0455,0.0462,0.0481,0.0468,0.0467,0.0445,0.0439,0.0449,0.0399,0.0394,0.0376,0.0336,0.0376,0.0348,0.0321,0.0298,0.0346,0.0334,0.034,0.0245,0.0244,0.0242,0.0241,0,0,0.0431,0.047,0.0474,0.0505,0.0511,0.0528,0.0552,0.0573,0.0605,0.0568,0.0615,0.0569,0.0538,0.0525,0.048,0.0477,0.0502,0.042,0.0418,0.0427,0.0516,0.0479,0.0482,0.0484,0.0486,0.0487,0.0485,0,0.0485,0.0559,0.0562,0.0632,0.067,0.0649,0.0683,0.0693,0.0687,0.0717,0.0675,0.0696,0.0599,0.0601,0.0581,0.0531,0.0522,0.0504,0.0458,0.0457,0.0429,0.0489,0.0471,0.0467,0.0491,0.0492,0.0493,0,0.0542,0.0588,0.0669,0.0733,0.0748,0.0781,0.0831,0.086,0.0881,0.0878,0.0881,0.0848,0.0844,0.0751,0.0695,0.0687,0.0608,0.0556,0.0555,0.0497,0.0432,0.0422,0.0476,0.0326,0.0501,0.05,0.05,0,0.0586,0.0662,0.0734,0.0755,0.0816,0.0848,0.088,0.091,0.096,0.0996,0.1041,0.1006,0.1009,0.0921,0.0788,0.075,0.0725,0.0662,0.0557,0.0552,0.0517,0.0507,0.0434,0.0629,0.0629,0.0629,0.0629,0,0.0645,0.0701,0.076,0.0801,0.0894,0.0912,0.1009,0.1026,0.109,0.1191,0.1135,0.1209,0.1051,0.1008,0.0865,0.074,0.0784,0.0589,0.0562,0.0544,0.0537,0.0388,0.0289,0.0629,0.0629,0.0629,0.0629,0,0.0684,0.0719,0.081,0.0888,0.0917,0.0985,0.1094,0.1169,0.1215,0.1347,0.1375,0.137,0.1327,0.1161,0.1026,0.0852,0.0637,0.0669,0.0648,0.0619,0.0361,0.0268,0.0159,0.0091,0.056,0.0559,0.0558,0,0.0716,0.0764,0.0872,0.0935,0.0975,0.1076,0.1154,0.1221,0.1315,0.1467,0.1547,0.1546,0.1585,0.1363,0.1062,0.0822,0.065,0.0612,0.0529,0.0367,0.0244,0.0172,0.0118,0.0512,0.0511,0.051,0.0509,0,0.0779,0.0808,0.0883,0.1009,0.1101,0.1223,0.134,0.1431,0.1546,0.1683,0.1848,0.1905,0.1693,0.1444,0.1077,0.0893,0.0491,0.0587,0.0437,0.0223,0.0126,0.0041,0.0477,0.0503,0.0503,0.0504,0.0504,0.0504,0.0821,0.0882,0.0974,0.1094,0.1208,0.1355,0.1468,0.1622,0.1811,0.204,0.2067,0.2202,0.1782,0.1296,0.1013,0.0445,0.0451,0.0265,0.0173,0.0123,0.0035,0.0449,0.0429,0.0429,0.0429,0.0429,0.043,0,0.0879,0.0945,0.1057,0.1203,0.1334,0.1386,0.1587,0.1728,0.1975,0.2202,0.237,0.2231,0.1759,0.1234,0.0449,0.0086,-0.0045,-0.01,-0.0206,-0.0236,0.0155,0.0129,0.0023,0.0023,0.0023,0.0023,0.0023,0.0023,0.0912,0.1014,0.1067,0.1276,0.1386,0.1573,0.1693,0.193,0.2127,0.2401,0.2485,0.251,0.2045,0.0745,-0.0095,-0.0268,-0.0517,-0.0585,-0.0678,-0.0429,-0.0401,-0.0376,-0.0421,-0.0641,-0.0642,-0.1026,-0.1031,-0.1034]}],[{"header":{"parameterUnit":"m.s-1","parameterCategory":2,"la1":30.2991,"la2":30.254,"lo1":-89.0895,"lo2":-89.0444,"dy":0.0017,"dx":0.0017,"nx":28,"ny":28,"refTime":"2025-02-05T09:00:00:Z","depth":"2","parameterNumber":2,"parameterNumberName":"U-component_of_CURRENTS"},"data":[0,0,0,0,0,0,0,0,0,0,0,0,0,0,0,0,0,0,0,0,0,0,0,0,0,0,0,0,0,0,0,0,0,0,0,0,0,0,0,0,0,0,0,0,0,0,0,0,0,0,0,0,0,0,0,0,0,0,0.2618,0.2618,0,0.2633,0.2633,0.2633,0.263,0.2629,0.2629,0.2629,0.2637,0.2637,0.2638,0,0,0,0,0,0,0,0,0,0,0,0,0,0.2602,0.2602,0.2618,0.2618,0.2619,0.2633,0.2633,0.2633,0.263,0.2629,0.2629,0.2629,0.2637,0.2637,0.2638,0,0,0,0,0,0,0,0,0,0,0,0,0,0.2611,0.2602,0.2618,0.262,0.262,0.2633,0.2633,0.2634,0.263,0.2629,0.2629,0.2629,0.2637,0.2637,0.2638,0.2646,0,0,0.2639,0.264,0,0,0,0,0,0,0,0,0.261,0.2611,0.2619,0.262,0.262,0.2631,0.2631,0.2638,0.263,0.2624,0.2629,0.2629,0.2636,0.2636,0.2637,0.2646,0.2647,0.264,0.264,0.264,0.264,0,0,0,0,0,0,0,0.261,0.2611,0.2622,0.2619,0.262,0.2626,0.2626,0.2632,0.263,0.2625,0.2625,0.2629,0.2635,0.2637,0.2638,0.2647,0.264,0.264,0.264,0.2641,0.2719,0.272,0,0,0,0,0,0,0.261,0.261,0.2622,0.2623,0.2616,0.2626,0.2627,0.2626,0.263,0.2631,0.2629,0.2629,0.2636,0.2637,0.2638,0.2695,0.264,0.2641,0.2641,0.2717,0.2719,0.2721,0,0,0,0,0,0,0.261,0.2611,0.2621,0.2618,0.262,0.2627,0.2626,0.2627,0.264,0.2634,0.2634,0.2644,0.2636,0.2637,0.2661,0.2694,0.2641,0.2641,0.2715,0.2717,0.272,0.278,0,0,0,0,0,0,0.2609,0.2611,0.2618,0.2618,0.2621,0.2643,0.2627,0.2627,0.2643,0.2643,0.2646,0.2646,0.2636,0.266,0.2661,0.2694,0.2642,0.2713,0.2716,0.2719,0.2776,0.2784,0.2792,0,0,0,0,0,0.2609,0.2617,0.2618,0.262,0.2628,0.2644,0.2646,0.2649,0.2644,0.2658,0.2662,0.2646,0.2682,0.2662,0.2663,0.2696,0.2711,0.2715,0.2719,0.2772,0.2783,0.2791,0,0,0,0,0,0,0.2611,0.2617,0.2619,0.2628,0.2643,0.2644,0.2659,0.2659,0.2672,0.2676,0.2664,0.2665,0.2702,0.2692,0.267,0.273,0.2696,0.2701,0.2737,0.2746,0.2754,0.2761,0.2642,0,0,0,0,0,0.2617,0.2625,0.2634,0.2644,0.2654,0.266,0.2669,0.2673,0.2682,0.2687,0.2689,0.2698,0.2718,0.2725,0.2738,0.2765,0.2779,0.279,0.2797,0.2804,0.2812,0.2872,0.2887,0.2734,0.2734,0.2734,0,0,0.2619,0.2625,0.2629,0.2646,0.2656,0.2677,0.2665,0.2687,0.2706,0.2687,0.2716,0.2727,0.2733,0.2769,0.2784,0.2763,0.2856,0.2809,0.2815,0.2819,0.2878,0.2893,0.2906,0.2736,0.2736,0.2736,0,0,0.2627,0.2637,0.2648,0.2666,0.2691,0.2699,0.271,0.2726,0.2737,0.2767,0.2765,0.2799,0.2814,0.2832,0.284,0.2901,0.29,0.2906,0.2947,0.3006,0.3019,0.3031,0.307,0.3085,0.2906,0.2906,0.2906,0,0.2633,0.2643,0.2657,0.2677,0.2694,0.2712,0.2733,0.2753,0.2774,0.2797,0.2786,0.2847,0.2848,0.2903,0.2923,0.2919,0.2946,0.2908,0.3017,0.3029,0.304,0.3077,0.3093,0.2909,0.2909,0.2909,0.2908,0,0.2648,0.2664,0.2676,0.2706,0.273,0.2753,0.2783,0.2814,0.2832,0.2854,0.2917,0.2928,0.2969,0.2976,0.2964,0.3046,0.3038,0.3023,0.2991,0.3059,0.3094,0.3109,0.2914,0.2913,0.2912,0.2911,0,0,0.2635,0.2677,0.2682,0.2697,0.2747,0.2763,0.2815,0.2864,0.2907,0.2943,0.2998,0.3041,0.3063,0.3076,0.3078,0.3118,0.3213,0.3105,0.3106,0.3141,0.3341,0.3255,0.3263,0.3222,0.3225,0.3228,0.3335,0,0.2642,0.2674,0.2699,0.2736,0.2755,0.28,0.2845,0.29,0.2948,0.3011,0.3054,0.3107,0.3098,0.3123,0.3173,0.3209,0.3256,0.3185,0.3273,0.3275,0.3189,0.3278,0.2998,0.3064,0.335,0.3352,0.3354,0,0.2642,0.2665,0.2696,0.2748,0.2764,0.2795,0.2877,0.2926,0.3028,0.307,0.315,0.3182,0.3268,0.3234,0.3356,0.3316,0.3339,0.3354,0.3359,0.3267,0.3217,0.3043,0.308,0.3379,0.3377,0.3375,0.3373,0,0.2609,0.2659,0.268,0.2698,0.2767,0.2798,0.2849,0.2947,0.3004,0.3119,0.3177,0.3277,0.3344,0.3399,0.3446,0.3414,0.3561,0.3521,0.3466,0.346,0.3231,0.3199,0.3604,0.3604,0.3603,0.3603,0.3603,0,0.2594,0.261,0.2666,0.2677,0.272,0.2784,0.2855,0.2924,0.3039,0.3115,0.3212,0.3282,0.3393,0.3479,0.3494,0.3541,0.3616,0.3496,0.3493,0.3243,0.3213,0.3485,0.347,0.3607,0.3606,0.3605,0.3605,0,0.2544,0.2582,0.2606,0.2675,0.27,0.2734,0.2846,0.2902,0.3027,0.313,0.317,0.3332,0.3448,0.3532,0.3634,0.3608,0.3642,0.363,0.3323,0.3281,0.3485,0.3472,0.3588,0.3586,0.3584,0.3583,0.3582,0,0.2517,0.2526,0.2587,0.2604,0.2633,0.2701,0.275,0.2878,0.2944,0.3138,0.3179,0.3342,0.3419,0.3559,0.3545,0.3576,0.3641,0.3319,0.3199,0.3504,0.349,0.3479,0.3469,0.2924,0.2918,0.2912,0.2908,0,0.2468,0.2491,0.2516,0.2547,0.2586,0.2622,0.2704,0.2747,0.2902,0.2996,0.3111,0.3187,0.3343,0.326,0.3323,0.3289,0.3289,0.3212,0.3638,0.2966,0.2886,0.2869,0.2879,0.2861,0.2866,0.2869,0.2872,0.2874,0.243,0.2428,0.2457,0.2477,0.2515,0.2509,0.2508,0.2594,0.266,0.2758,0.2929,0.2967,0.3036,0.2989,0.2907,0.2847,0.3067,0.2914,0.2927,0.2947,0.2846,0.2766,0.27,0.2704,0.2707,0.2709,0.2712,0,0.2363,0.2366,0.2384,0.2379,0.2361,0.2424,0.2449,0.2409,0.2418,0.2553,0.2632,0.2465,0.244,0.2508,0.2343,0.2343,0.2291,0.2243,0.2147,0.2196,0.224,0.2099,0.1758,0.1754,0.1751,0.1749,0,0,0.2326,0.2304,0.23,0.2221,0.2228,0.215,0.2136,0.2096,0.2131,0.2103,0.213,0.2351,0.2447,0.2078,0.2029,0.1863,0.2009,0.1787,0.2559,0.2496,0.2535,0.2641,0.2483,0,0,0,0,0]},{"header":{"parameterUnit":"m.s-1","parameterCategory":2,"la1":30.2991,"la2":30.254,"lo1":-89.0895,"lo2":-89.0444,"dy":0.0017,"dx":0.0017,"nx":28,"ny":28,"refTime":"2025-02-05T09:00:00:Z","depth":"2","parameterNumber":3,"parameterNumberName":"V-component_of_CURRENTS"},"data":[0,0,0,0,0,0,0,0,0,0,0,0,0,0,0,0,0,0,0,0,0,0,0,0,0,0,0,0,0,0,0,0,0,0,0,0,0,0,0,0,0,0,0,0,0,0,0,0,0,0,0,0,0,0,0,0,0,0,0.0131,0.013,0,0.0088,0.0088,0.0087,0.0056,0.0056,0.0055,0.0055,0.0009,0.0008,0.0007,0,0,0,0,0,0,0,0,0,0,0,0,0,0.0142,0.0142,0.0131,0.013,0.013,0.0088,0.0088,0.0087,0.0056,0.0056,0.0055,0.0055,0.0009,0.0008,0.0007,0,0,0,0,0,0,0,0,0,0,0,0,0,0.0121,0.0142,0.0131,0.011,0.0108,0.0089,0.0088,0.0087,0.0056,0.0056,0.0055,0.0055,0.001,0.0008,0.0007,0.0002,0,0,0.0002,0.0001,0,0,0,0,0,0,0,0,0.0122,0.0121,0.0113,0.0111,0.0109,0.0078,0.0075,0.0059,0.0056,0.0074,0.0055,0.0055,0.0033,0.0029,0.002,0.0,-0.0002,0.0002,0.0001,-0.0,-0.0,0,0,0,0,0,0,0,0.0124,0.0122,0.0113,0.0113,0.011,0.0088,0.0085,0.0071,0.0055,0.0073,0.0071,0.0068,0.0031,0.0022,0.0019,-0.0002,0.0002,0.0,-0.0001,-0.0001,-0.0021,-0.002,0,0,0,0,0,0,0.0134,0.0124,0.0114,0.0112,0.0116,0.0088,0.0085,0.0087,0.0055,0.005,0.0068,0.0066,0.0025,0.0021,0.0017,0.0028,0.0,-0.0001,-0.0002,-0.0021,-0.0021,-0.002,0,0,0,0,0,0,0.0134,0.0134,0.0116,0.0117,0.0113,0.0089,0.0091,0.0087,0.0081,0.0051,0.0046,0.0068,0.0024,0.002,0.0011,0.0025,-0.0002,-0.0004,-0.0022,-0.0021,-0.0021,0.0037,0,0,0,0,0,0,0.0135,0.0134,0.0137,0.0118,0.0114,0.0115,0.0092,0.0086,0.008,0.0077,0.0049,0.0045,0.0024,0.0014,0.001,0.0022,-0.0005,-0.0022,-0.0022,-0.0021,0.0035,0.004,0.0044,0,0,0,0,0,0.0136,0.0146,0.0138,0.0136,0.012,0.0116,0.0112,0.0092,0.008,0.0084,0.0063,0.0046,0.0016,0.0013,0.0008,0.0021,-0.0023,-0.0022,-0.0021,0.0033,0.0039,0.0044,0,0,0,0,0,0,0.015,0.0144,0.0134,0.0141,0.0133,0.0111,0.011,0.0098,0.0084,0.008,0.0051,0.0045,0.0041,0.0023,0.0021,0.0016,-0.0006,-0.0006,0.0036,0.0042,0.0046,0.0065,-0.0006,0,0,0,0,0,0.0156,0.0163,0.0151,0.0156,0.0153,0.0133,0.0127,0.0116,0.0101,0.0094,0.0075,0.0055,0.0041,0.0036,0.0018,0.0019,-0.0003,0.0023,0.0028,0.0032,0.0043,0.0019,0.0023,-0.0017,-0.0017,-0.0017,0,0,0.0162,0.0159,0.0162,0.0159,0.0149,0.0159,0.0129,0.0127,0.0135,0.0092,0.0095,0.0069,0.0043,0.0041,0.0039,0.003,0.0031,0.0033,0.0037,0.0046,0.0021,0.0024,0.0028,-0.0016,-0.0017,-0.0017,0,0,0.0186,0.0177,0.0194,0.0193,0.0186,0.0177,0.0181,0.0165,0.0157,0.0155,0.0126,0.0111,0.009,0.0076,0.0065,0.0086,0.0053,0.0079,0.0122,0.0099,0.0102,0.0105,0.008,0.008,0.0085,0.0085,0.0085,0,0.0194,0.0215,0.0197,0.0215,0.0222,0.0192,0.0215,0.0204,0.0187,0.0189,0.0166,0.0135,0.0108,0.0112,0.0116,0.0098,0.0078,0.0104,0.0106,0.0108,0.0109,0.0083,0.0083,0.0088,0.0088,0.0087,0.0087,0,0.0233,0.0249,0.0259,0.0275,0.0279,0.0293,0.0281,0.0278,0.0262,0.0253,0.0246,0.0203,0.0189,0.0174,0.0151,0.0154,0.0133,0.0111,0.0094,0.0117,0.0088,0.0086,0.0092,0.0091,0.009,0.009,0,0,0.0258,0.0284,0.0288,0.0312,0.0315,0.0328,0.0338,0.0347,0.0367,0.0331,0.0349,0.0308,0.0282,0.0268,0.0231,0.0209,0.0194,0.0171,0.0168,0.0152,0.0143,0.0114,0.0108,0.0172,0.0172,0.0172,0.0117,0,0.0297,0.0351,0.035,0.0401,0.043,0.0411,0.0431,0.0432,0.0424,0.0431,0.0378,0.0379,0.032,0.0314,0.0281,0.0223,0.0193,0.0212,0.0119,0.0116,0.0092,0.0107,0.0131,0.0082,0.0115,0.0114,0.0114,0,0.034,0.0374,0.0432,0.0478,0.0489,0.0511,0.0544,0.0561,0.0555,0.0548,0.0528,0.0484,0.0449,0.0389,0.0299,0.0314,0.0235,0.0178,0.0174,0.0129,0.0084,0.0064,0.0077,0.011,0.0111,0.0111,0.0111,0,0.038,0.0433,0.0486,0.05,0.0542,0.0562,0.0585,0.0598,0.0636,0.0626,0.0647,0.0582,0.0566,0.0459,0.0332,0.0318,0.0225,0.0189,0.0086,0.0082,0.0076,0.0072,0.0117,0.0117,0.0118,0.0118,0.0118,0,0.0428,0.047,0.0509,0.0541,0.0612,0.0619,0.0696,0.07,0.0734,0.0799,0.0717,0.0741,0.0583,0.0504,0.0369,0.023,0.0251,0.01,0.007,0.0095,0.0094,0.0097,0.0095,0.0116,0.0116,0.0116,0.0117,0,0.0465,0.0486,0.0555,0.0611,0.0633,0.0687,0.0777,0.0838,0.0851,0.0928,0.0928,0.0871,0.0772,0.06,0.0434,0.0296,0.015,0.0088,0.0127,0.0102,0.0011,0.0013,-0.0026,-0.0028,-0.0029,-0.003,-0.0031,0,0.0489,0.0526,0.0611,0.0664,0.0693,0.0778,0.0845,0.0891,0.0969,0.1016,0.1062,0.0981,0.0947,0.0685,0.0431,0.0189,0.015,0.0034,0.0004,0.0024,-0.0002,0.0002,0.0006,0.0016,0.0016,0.0015,0.0015,0,0.054,0.0565,0.0626,0.0735,0.0814,0.0921,0.1019,0.1096,0.1162,0.1222,0.1277,0.1246,0.1,0.0763,0.0417,0.0247,0.0073,0.0019,0.0039,0.0047,0.0059,0.0035,0.0038,0.0012,0.0013,0.0013,0.0013,0.0013,0.0577,0.0629,0.0708,0.0814,0.0913,0.1044,0.1145,0.1254,0.1377,0.1468,0.1434,0.1395,0.1106,0.0677,0.0377,0.0057,0.007,-0.0054,-0.005,-0.0047,-0.0034,-0.0025,-0.0085,-0.0085,-0.0085,-0.0086,-0.0086,0,0.0628,0.0687,0.0786,0.0913,0.103,0.1079,0.1251,0.1349,0.1497,0.1568,0.1607,0.1331,0.1059,0.0727,0.0261,-0.0025,-0.0042,-0.0123,-0.0079,-0.0074,-0.007,-0.0056,-0.0115,-0.0115,-0.0116,-0.0117,0,0,0.0656,0.075,0.0799,0.0983,0.1084,0.1247,0.1353,0.1489,0.1578,0.1641,0.1624,0.1566,0.1162,0.0816,0.043,0.0162,0.0109,0.0104,0.0157,0.0261,0.0268,-0.0001,0.0029,0,0,0,0,0]}],[{"header":{"parameterUnit":"m.s-1","parameterCategory":2,"la1":30.2991,"la2":30.254,"lo1":-89.0895,"lo2":-89.0444,"dy":0.0017,"dx":0.0017,"nx":28,"ny":28,"refTime":"2025-02-05T09:00:00:Z","depth":"4","parameterNumber":2,"parameterNumberName":"U-component_of_CURRENTS"},"data":[0,0,0,0,0,0,0,0,0,0,0,0,0,0,0,0,0,0,0,0,0,0,0,0,0,0,0,0,0,0,0,0,0,0,0,0,0,0,0,0,0,0,0,0,0,0,0,0,0,0,0,0,0,0,0,0,0,0,0.1677,0.1678,0,0.1735,0.1735,0.1736,0.1789,0.179,0.179,0.1791,0.1865,0.1866,0.1867,0,0,0,0,0,0,0,0,0,0,0,0,0,0.1613,0.1614,0.1677,0.1678,0.1679,0.1735,0.1735,0.1736,0.1789,0.179,0.1791,0.1791,0.1864,0.1866,0.1867,0,0,0,0,0,0,0,0,0,0,0,0,0,0.1652,0.1614,0.1677,0.1713,0.1717,0.1735,0.1736,0.1736,0.1788,0.179,0.1791,0.1792,0.1864,0.1865,0.1867,0.1855,0,0,0.1873,0.1874,0,0,0,0,0,0,0,0,0.1649,0.1654,0.1707,0.1711,0.1715,0.1757,0.174,0.1777,0.1788,0.176,0.1791,0.1793,0.183,0.1835,0.1841,0.1858,0.1862,0.1873,0.1874,0.1875,0.1875,0,0,0,0,0,0,0,0.1647,0.1651,0.1699,0.1708,0.1713,0.1727,0.1733,0.1747,0.1787,0.1762,0.1767,0.1775,0.1833,0.1839,0.1843,0.1863,0.1873,0.1875,0.1876,0.1876,0.1987,0.1989,0,0,0,0,0,0,0.1641,0.1649,0.1697,0.17,0.1686,0.1727,0.1734,0.1741,0.1786,0.1795,0.1774,0.1777,0.1835,0.1841,0.1846,0.1934,0.1875,0.1877,0.1878,0.1985,0.1987,0.1989,0,0,0,0,0,0,0.164,0.1645,0.1694,0.1677,0.1685,0.1727,0.1734,0.1742,0.1786,0.1795,0.1804,0.1815,0.1836,0.1843,0.1894,0.1933,0.1877,0.1879,0.1983,0.1986,0.1988,0.2045,0,0,0,0,0,0,0.1637,0.1644,0.1666,0.1677,0.1686,0.1729,0.1734,0.1742,0.1788,0.1794,0.1833,0.1839,0.1838,0.1892,0.1896,0.1935,0.1881,0.1981,0.1984,0.1987,0.2041,0.205,0.2057,0,0,0,0,0,0.1635,0.1652,0.1666,0.1674,0.1708,0.1731,0.1737,0.1769,0.1789,0.1813,0.1844,0.1839,0.1917,0.1894,0.1899,0.1939,0.1979,0.1983,0.1987,0.2038,0.2048,0.2057,0,0,0,0,0,0,0.1636,0.1659,0.1676,0.17,0.1727,0.1741,0.1771,0.1789,0.1832,0.1851,0.1859,0.1867,0.1928,0.1926,0.1901,0.1983,0.1949,0.1954,0.1985,0.1995,0.2003,0.1999,0.1882,0,0,0,0,0,0.1645,0.1668,0.1689,0.1714,0.1731,0.1758,0.178,0.1802,0.1831,0.1853,0.188,0.1912,0.1941,0.1963,0.1986,0.2027,0.203,0.2058,0.2066,0.2072,0.2074,0.2119,0.2131,0.2003,0.2003,0.2003,0,0,0.1653,0.167,0.1685,0.1718,0.1743,0.1769,0.1776,0.1818,0.185,0.1853,0.1918,0.1943,0.1959,0.2009,0.2036,0.2017,0.2112,0.2078,0.2083,0.2081,0.2125,0.2137,0.2148,0.2006,0.2005,0.2005,0,0,0.1666,0.1698,0.1718,0.1743,0.1788,0.1804,0.1824,0.1862,0.1896,0.195,0.1965,0.2015,0.2059,0.2078,0.2091,0.2156,0.2154,0.2173,0.2209,0.2254,0.2264,0.2274,0.2294,0.2305,0.2175,0.2175,0.2175,0,0.1681,0.1702,0.173,0.1755,0.1782,0.1823,0.1851,0.1885,0.1939,0.1972,0.1984,0.2072,0.2089,0.2143,0.2169,0.2174,0.2193,0.217,0.2263,0.2273,0.2281,0.23,0.2311,0.2178,0.2178,0.2178,0.2177,0,0.1694,0.1729,0.1746,0.1791,0.1823,0.1858,0.1901,0.1952,0.2001,0.2033,0.2116,0.2145,0.2197,0.2214,0.2212,0.2286,0.2278,0.2269,0.2236,0.2298,0.2313,0.2324,0.2183,0.2182,0.2181,0.218,0,0,0.1681,0.1743,0.1755,0.1782,0.1848,0.187,0.1937,0.1998,0.205,0.2116,0.2181,0.2241,0.2274,0.229,0.2305,0.2341,0.2418,0.2338,0.2339,0.2351,0.2512,0.2352,0.2348,0.2434,0.2436,0.2438,0.2498,0,0.1689,0.1733,0.1768,0.1823,0.1849,0.1911,0.1962,0.203,0.2098,0.2173,0.2227,0.2297,0.2297,0.2338,0.2378,0.2415,0.245,0.2402,0.2455,0.2456,0.2302,0.2356,0.2445,0.2505,0.2508,0.2509,0.2511,0,0.1684,0.1717,0.1766,0.1836,0.1856,0.1902,0.1999,0.2054,0.2162,0.2222,0.2307,0.2352,0.2434,0.242,0.2513,0.249,0.2509,0.2523,0.2526,0.2361,0.2315,0.2432,0.2529,0.2528,0.2526,0.2525,0.2524,0,0.1641,0.1714,0.1755,0.178,0.1865,0.1913,0.1971,0.2076,0.2136,0.2267,0.233,0.2424,0.249,0.2538,0.2583,0.2564,0.2669,0.264,0.2509,0.2498,0.2598,0.2588,0.2698,0.2698,0.2698,0.2698,0.2698,0,0.1612,0.165,0.1745,0.1764,0.1823,0.1898,0.1979,0.2058,0.2176,0.2242,0.2358,0.2418,0.2529,0.2597,0.2615,0.2595,0.2702,0.2519,0.2505,0.2621,0.2612,0.2605,0.2594,0.27,0.27,0.2699,0.2699,0,0.1549,0.1612,0.1663,0.1765,0.1802,0.1849,0.1974,0.2022,0.2159,0.2252,0.23,0.2449,0.2532,0.2611,0.2694,0.2621,0.2625,0.2591,0.2715,0.2707,0.2413,0.2404,0.2432,0.2427,0.2423,0.2419,0.2416,0,0.1513,0.1536,0.1651,0.1678,0.173,0.1813,0.1858,0.2001,0.2055,0.2241,0.2267,0.241,0.2486,0.2477,0.2572,0.2592,0.2563,0.2537,0.2458,0.2403,0.2388,0.2386,0.2383,0.241,0.2408,0.2407,0.2406,0,0.1442,0.1503,0.1542,0.1604,0.166,0.1707,0.1793,0.1821,0.1974,0.2121,0.2181,0.2226,0.2315,0.2374,0.2416,0.2423,0.2534,0.2491,0.2498,0.2424,0.2375,0.2364,0.2366,0.2391,0.2393,0.2395,0.2396,0,0.1394,0.1403,0.1466,0.1505,0.1567,0.1573,0.1634,0.169,0.1766,0.1971,0.1987,0.2143,0.2288,0.2288,0.2326,0.2324,0.2276,0.2181,0.2203,0.2221,0.2124,0.203,0.193,0,0,0,0,0,0.1332,0.1327,0.1355,0.1382,0.1436,0.1474,0.1571,0.1636,0.1791,0.1778,0.1878,0.195,0.2009,0.2098,0.2053,0.2227,0.2283,0.2162,0.2183,0.2308,0.2326,0.2231,0,0,0,0,0,0,0.1285,0.1312,0.1315,0.1272,0.1267,0.1308,0.1363,0.1464,0.1471,0.1643,0.1695,0.1823,0.1923,0.202,0.2016,0.204,0.2007,0.2266,0.226,0.2299,0.2314,0.2328,0.2237,0,0,0,0,0]},{"header":{"parameterUnit":"m.s-1","parameterCategory":2,"la1":30.2991,"la2":30.254,"lo1":-89.0895,"lo2":-89.0444,"dy":0.0017,"dx":0.0017,"nx":28,"ny":28,"refTime":"2025-02-05T09:00:00:Z","depth":"4","parameterNumber":3,"parameterNumberName":"V-component_of_CURRENTS"},"data":[0,0,0,0,0,0,0,0,0,0,0,0,0,0,0,0,0,0,0,0,0,0,0,0,0,0,0,0,0,0,0,0,0,0,0,0,0,0,0,0,0,0,0,0,0,0,0,0,0,0,0,0,0,0,0,0,0,0,0.0102,0.0102,0,0.0074,0.0074,0.0074,0.0054,0.0054,0.0054,0.0054,0.0022,0.0021,0.0021,0,0,0,0,0,0,0,0,0,0,0,0,0,0.0109,0.0109,0.0102,0.0102,0.0102,0.0074,0.0074,0.0073,0.0054,0.0054,0.0054,0.0054,0.0022,0.0022,0.0021,0,0,0,0,0,0,0,0,0,0,0,0,0,0.0095,0.0109,0.0102,0.0089,0.0088,0.0074,0.0074,0.0073,0.0054,0.0054,0.0054,0.0054,0.0023,0.0022,0.0021,0.0017,0,0,0.0017,0.0017,0,0,0,0,0,0,0,0,0.0096,0.0095,0.0091,0.009,0.0088,0.0068,0.0065,0.0054,0.0054,0.0066,0.0054,0.0054,0.0038,0.0035,0.003,0.0015,0.0014,0.0017,0.0016,0.0016,0.0016,0,0,0,0,0,0,0,0.0097,0.0096,0.0091,0.0091,0.0089,0.0074,0.0072,0.0062,0.0053,0.0065,0.0064,0.0062,0.0037,0.0031,0.0029,0.0013,0.0017,0.0016,0.0015,0.0015,-0.0001,-0.0001,0,0,0,0,0,0,0.0104,0.0097,0.0092,0.009,0.0093,0.0074,0.0072,0.0074,0.0053,0.005,0.0062,0.0061,0.0033,0.003,0.0028,0.0034,0.0016,0.0015,0.0014,-0.0002,-0.0001,-0.0001,0,0,0,0,0,0,0.0104,0.0104,0.0093,0.0093,0.0091,0.0075,0.0077,0.0074,0.0071,0.005,0.0047,0.0063,0.0033,0.0029,0.0024,0.0032,0.0014,0.0013,-0.0002,-0.0001,-0.0001,0.0039,0,0,0,0,0,0,0.0104,0.0104,0.0107,0.0094,0.0091,0.0092,0.0077,0.0073,0.007,0.0069,0.005,0.0047,0.0032,0.0026,0.0023,0.003,0.0012,-0.0002,-0.0002,-0.0001,0.0037,0.004,0.0043,0,0,0,0,0,0.0105,0.0113,0.0107,0.0107,0.0096,0.0093,0.009,0.0078,0.007,0.0074,0.006,0.0047,0.0027,0.0026,0.0022,0.0029,-0.0002,-0.0002,-0.0001,0.0036,0.004,0.0043,0,0,0,0,0,0,0.0115,0.0111,0.0105,0.0111,0.0105,0.009,0.009,0.0082,0.0073,0.0072,0.0052,0.0048,0.0045,0.0032,0.0031,0.0025,0.001,0.0009,0.0039,0.0042,0.0045,0.0059,0.0012,0,0,0,0,0,0.012,0.0126,0.0117,0.0121,0.012,0.0106,0.0102,0.0095,0.0086,0.0082,0.0069,0.0054,0.0044,0.004,0.0027,0.0027,0.0005,0.0028,0.0031,0.0034,0.0041,0.0013,0.0015,0.0001,0.0001,0.0001,0,0,0.0125,0.0123,0.0126,0.0124,0.0117,0.0125,0.0104,0.0103,0.0109,0.008,0.0083,0.0065,0.0045,0.0043,0.0041,0.0034,0.0025,0.0034,0.0037,0.0043,0.0014,0.0015,0.0016,0.0001,0.0001,0.0001,0,0,0.0142,0.0137,0.0149,0.0149,0.0145,0.0139,0.0142,0.0131,0.0126,0.0126,0.0104,0.0092,0.0079,0.0065,0.0057,0.007,0.0041,0.0065,0.0093,0.0066,0.0067,0.0068,0.0039,0.0037,0.0068,0.0068,0.0068,0,0.0148,0.0163,0.0152,0.0164,0.017,0.0149,0.0167,0.0158,0.0147,0.0148,0.0134,0.011,0.009,0.0087,0.009,0.0077,0.0056,0.0082,0.007,0.007,0.007,0.0041,0.0038,0.007,0.007,0.007,0.007,0,0.0175,0.0188,0.0195,0.0207,0.0211,0.0221,0.0213,0.0212,0.0202,0.0194,0.0187,0.0155,0.0144,0.0131,0.0115,0.0108,0.0091,0.0076,0.0062,0.0074,0.0042,0.0039,0.0073,0.0072,0.0072,0.0071,0,0,0.0191,0.0211,0.0215,0.0234,0.0237,0.0247,0.0254,0.026,0.0274,0.0247,0.0257,0.0226,0.0206,0.0195,0.0167,0.0141,0.0116,0.0113,0.0111,0.0088,0.0054,0.0038,0.0032,0.0098,0.0098,0.0097,0.0031,0,0.0218,0.0256,0.0257,0.0297,0.0318,0.0307,0.0321,0.0321,0.0316,0.0318,0.0274,0.0274,0.0232,0.0229,0.0194,0.014,0.0109,0.0136,0.0044,0.0041,0.0028,0.0028,0.0096,0.0028,0.0027,0.0026,0.0026,0,0.0245,0.0271,0.0315,0.0352,0.0361,0.038,0.0406,0.0418,0.0409,0.0404,0.0385,0.0351,0.0313,0.0273,0.0181,0.02,0.0134,0.0082,0.0078,0.0049,0.0018,0.0013,0.0018,0.0019,0.0019,0.002,0.002,0,0.027,0.0313,0.0353,0.0366,0.04,0.0419,0.0438,0.0446,0.0475,0.0464,0.0476,0.0417,0.0397,0.0304,0.0194,0.019,0.0085,0.0064,-0.0018,-0.002,-0.0003,-0.0003,-0.0006,-0.0006,-0.0006,-0.0006,-0.0005,0,0.0299,0.0334,0.0372,0.0396,0.0454,0.0461,0.0522,0.0527,0.055,0.0591,0.0529,0.0533,0.0404,0.0326,0.0215,0.0089,0.0098,-0.0011,-0.0037,0.0015,0.0017,-0.0006,-0.0005,-0.0008,-0.0007,-0.0007,-0.0007,0,0.032,0.0341,0.0396,0.0446,0.0468,0.0512,0.0589,0.0632,0.0642,0.0688,0.0688,0.0627,0.0523,0.0382,0.0231,0.0128,0.0002,-0.0048,0.0021,-0.0001,-0.0091,-0.0087,-0.0141,-0.0142,-0.0143,-0.0144,-0.0144,0,0.0332,0.0361,0.0438,0.0483,0.0511,0.0582,0.0636,0.0676,0.073,0.0745,0.0767,0.0683,0.0618,0.0399,0.0239,0.0021,-0.0016,-0.0088,-0.0096,-0.0084,-0.0104,-0.0099,-0.0094,-0.0146,-0.0146,-0.0146,-0.0147,0,0.036,0.0386,0.0435,0.0527,0.0595,0.0682,0.076,0.0804,0.0848,0.0855,0.0837,0.0715,0.0594,0.0409,0.0237,0.0078,-0.0045,-0.0099,-0.0098,-0.0106,-0.0091,-0.0109,-0.0103,-0.015,-0.0149,-0.0149,-0.0149,0,0.0381,0.042,0.0485,0.0569,0.0658,0.075,0.0794,0.0852,0.0899,0.0907,0.0897,0.0755,0.0677,0.0439,0.0282,0.0122,0.0074,0.0012,0.0006,0.0007,0.0062,0.0103,0.0085,0,0,0,0,0,0.0402,0.0448,0.0525,0.0618,0.0708,0.0765,0.0863,0.0901,0.0936,0.0933,0.092,0.0803,0.0567,0.047,0.0308,0.025,0.0038,0.0052,-0.0039,-0.0168,-0.0164,-0.0128,0,0,0,0,0,0,0.0416,0.0484,0.0523,0.0642,0.0712,0.082,0.0885,0.0915,0.092,0.0923,0.0809,0.0746,0.0526,0.0659,0.0299,0.025,0.0166,-0.0055,-0.0059,-0.017,-0.0166,-0.0163,-0.0125,0,0,0,0,0]}]]